Regional Weather Roundup
Issued by NWS

Home | Current Version | Previous Version | Graphics & Text | Print | Product List | Glossary On
Versions: 1 2 3 4 5 6 7 8 9 10 11 12 13 14 15 16 17 18 19 20 21 22 23 24 25 26 27 28 29 30 31 32 33 34 35 36 37 38 39 40 41 42 43 44 45 46 47 48 49 50
514
ASUS43 KOAX 060810
RWRNE

WEATHER ROUNDUP FOR NEBRASKA
NATIONAL WEATHER SERVICE OMAHA NE
300 AM CDT FRI MAY 06 2016

NOTES: SATELLITE DATA IS BEING USED TO AUGMENT CLOUD COVER ABOVE
       12000 FEET.
       "FAIR" INDICATES FEW OR NO CLOUDS BELOW 12,000 FEET WITH NO
       SIGNIFICANT WEATHER AND/OR OBSTRUCTIONS TO VISIBILITY.

  * THESE STATIONS DO NOT REPORT WEATHER SUCH AS RAIN...SNOW OR FOG.

NEZ001>004-019>022-054>056-060900-
NEBRASKA PANHANDLE

CITY           SKY/WX    TMP DP  RH WIND       PRES   REMARKS
SCOTTSBLUFF    CLOUDY    65  42  43 VRB7      29.95F
ALLIANCE       CLOUDY    52  47  83 SE9       29.96F
CHADRON        CLOUDY    60  44  55 CALM      29.91S
KIMBALL        CLOUDY    54  43  67 S10       30.02F
SIDNEY         CLOUDY    56  43  61 SW13      30.00F
$$

NEZ057>060-069>072-079>082-060900-
SOUTHWEST NEBRASKA

CITY           SKY/WX    TMP DP  RH WIND       PRES   REMARKS
NORTH PLATTE   CLOUDY    59  46  62 S7        29.99F
IMPERIAL       PTCLDY    56  47  71 S9        30.01F
MCCOOK         CLOUDY    56  46  69 S8        30.01F
OGALLALA       PTCLDY    56  47  72 CALM      30.00S
$$

NEZ005>010-023>029-035>040-094-060900-
NORTH CENTRAL NEBRASKA

CITY           SKY/WX    TMP DP  RH WIND       PRES   REMARKS
VALENTINE      CLEAR     63  47  55 SW16      29.91S
AINSWORTH      CLEAR     63  47  55 S16       29.94S
BROKEN BOW     LGT RAIN  59  46  62 SW6       30.00S
O`NEILL        CLEAR     61  47  61 S7        29.96S
ORD            CLEAR     56  46  69 S9        29.97F
THEDFORD       CLEAR     63  47  56 S13G22    29.98S
$$

NEZ041-046>049-061>064-073>077-083>087-060900-
SOUTH CENTRAL NEBRASKA

CITY           SKY/WX    TMP DP  RH WIND       PRES   REMARKS
GRAND ISLAND   CLEAR     60  42  51 S13       30.01F
AURORA         CLEAR     59  42  53 S13       30.01S
HASTINGS       CLEAR     57  43  59 S7        30.02F
HEBRON         CLEAR     55  45  68 S8        30.03S
HOLDREGE       CLOUDY    54  45  71 S7        30.02F
KEARNEY *      CLEAR     55  43  62 S10       30.02S
YORK           CLEAR     55  43  62 SW9       30.01F
$$

NEZ011>018-030>034-042>045-060900-
NORTHEAST NEBRASKA

CITY           SKY/WX    TMP DP  RH WIND       PRES   REMARKS
NORFOLK        CLEAR     58  41  53 S15       29.96F
ALBION         CLEAR     56  43  60 S3        29.98F
BLAIR          PTCLDY    57  42  57 S7        29.99F
COLUMBUS *     CLEAR     61  39  44 SW8       29.99F
FREMONT        CLEAR     61  42  50 S9        29.99S
TEKAMAH        CLEAR     53  44  71 SE10      29.97F
WAYNE          CLEAR     55  44  66 SW9       29.97S
$$

NEZ050>053-065>068-078-088>093-060900-
SOUTHEAST NEBRASKA

CITY           SKY/WX    TMP DP  RH WIND       PRES   REMARKS
LINCOLN        CLEAR     57  43  59 CALM      30.02F
OMAHA EPPLEY   PTCLDY    55  45  68 SE10      30.00S
BEATRICE       CLEAR     56  44  64 S6        30.02F
FALLS CITY     PTCLDY    53  44  71 CALM      30.02S
NEBRASKA CITY  CLEAR     55  41  60 SW12      30.01F
PLATTSMOUTH    CLEAR     60  44  54 S7        30.01S
$$

NEZ044-045-051>053-067-060900-
OMAHA AREA

CITY           SKY/WX    TMP DP  RH WIND       PRES   REMARKS
OMAHA EPPLEY   PTCLDY    55  45  68 SE10      30.00S
BLAIR          PTCLDY    57  42  57 S7        29.99F
FREMONT        CLEAR     61  42  50 S9        29.99S
MILLARD        CLEAR     52  46  80 CALM      30.00F
OFFUTT AFB     PTCLDY    49  47  91 SE3       29.99F
PLATTSMOUTH    CLEAR     60  44  54 S7        30.01S
WAHOO          FAIR      58  44  60 SW7       29.99F
$$




USA.gov is the U.S. government's official web portal to all federal, state and local government web resources and services.